Wind_Speed
6 6 7 7 7 6 6 6 4 1 2 2 2 2 2 2 2 4 4 3 1 4 5 4 8 5 3 1 3 3 3 0 3 3 3 4 5 4 4 4 4 5 8 10 10 12 13 14 14 14 13 12 11 11 10 11 11 11 11 11 11 11 11 11 11 11 11 11 11 11 10 10 9 9 10 9 9 9 9 9 8 8 7 7 6
5 6 7 7 7 6 5 5 4 2 3 4 4 4 3 2 2 2 1 1 0 3 4 5 9 6 5 4 2 1 2 1 3 6 6 7 7 6 4 4 4 4 6 8 10 11 12 13 14 14 14 13 12 11 12 13 13 13 13 13 13 13 13 13 13 12 12 12 12 11 11 10 10 10 10 10 10 10 9 9 9 9 8 8 7
5 6 6 6 7 6 5 5 3 3 5 4 4 3 3 2 1 1 1 1 1 2 3 6 5 4 7 6 3 1 2 3 2 4 8 10 8 6 5 5 4 4 5 6 8 10 10 12 13 13 13 13 12 13 15 15 14 14 14 14 14 14 15 15 15 14 13 13 12 12 11 11 11 10 10 10 11 11 10 10 10 10 9 9 8
7 7 6 6 7 7 7 7 5 6 6 5 4 2 3 2 1 1 1 3 2 1 3 3 2 3 5 3 3 3 3 5 4 5 7 13 10 6 6 6 5 5 4 4 5 7 8 10 12 13 13 14 15 16 17 16 15 15 15 15 15 14 15 15 15 15 14 13 13 13 12 12 11 11 10 10 11 11 11 11 11 11 11 10 10
9 9 8 7 7 7 7 8 8 7 7 5 4 3 3 2 1 1 0 3 1 2 3 1 2 4 4 1 2 2 3 5 6 4 6 11 9 7 6 6 6 6 5 4 4 5 6 8 10 12 14 14 16 18 17 16 16 16 15 16 16 15 16 16 15 14 14 14 14 14 13 13 12 12 11 11 11 11 11 12 12 12 12 11 11
12 11 11 10 9 8 8 8 8 7 7 6 5 5 4 4 3 1 1 4 2 1 2 1 2 3 2 2 2 1 2 7 7 6 10 11 10 9 8 7 7 7 6 4 3 4 5 6 8 10 13 14 15 17 17 17 16 16 16 16 17 18 18 17 16 15 15 15 15 15 15 14 13 13 12 12 12 12 12 13 13 12 12 12 12
14 12 12 12 11 9 9 9 8 7 7 7 7 6 5 5 3 1 3 4 3 2 3 2 2 4 2 1 1 1 1 7 8 9 11 12 13 11 10 9 8 8 7 5 4 4 4 5 6 8 10 12 14 14 15 16 16 16 17 17 18 19 18 17 17 16 15 15 15 15 15 15 14 14 14 14 14 14 14 14 14 14 14 13 13
13 12 12 12 11 9 9 9 8 7 8 8 8 7 6 5 4 3 4 5 4 2 4 3 2 4 1 2 1 3 2 4 5 6 6 8 11 11 11 10 9 9 8 7 7 6 5 4 5 7 8 10 11 12 12 14 15 16 18 18 19 20 19 18 17 16 16 16 16 16 15 15 14 14 15 15 15 15 15 15 15 15 15 14 14
13 12 12 12 11 10 10 9 8 8 8 9 8 7 6 5 4 4 5 5 3 2 3 3 2 3 2 1 2 3 2 1 2 2 3 5 6 9 11 11 11 10 9 9 8 7 6 5 5 6 7 8 9 11 11 11 13 16 18 18 18 19 20 19 17 16 17 17 17 17 16 15 15 15 16 16 16 16 16 16 16 16 16 15 15
13 12 11 11 11 10 10 9 8 8 8 9 8 7 6 5 5 6 6 5 3 3 3 2 1 1 3 1 1 2 3 4 5 4 4 3 5 10 12 12 12 11 12 12 10 8 6 4 5 6 7 8 7 7 9 10 12 14 16 17 17 17 18 19 18 18 18 18 18 18 17 17 16 16 17 17 17 17 17 17 18 17 17 16 16
13 11 11 10 10 10 10 9 8 8 8 9 8 7 6 5 5 7 5 3 3 4 3 2 2 2 1 1 1 2 3 4 5 6 7 2 6 13 14 14 13 11 13 13 12 10 8 6 4 5 7 6 5 5 6 8 9 11 13 14 15 16 17 18 18 18 18 19 19 18 18 18 18 17 18 18 18 19 18 18 19 19 18 18 17
14 12 10 10 9 9 10 10 9 8 8 8 7 5 5 5 6 5 4 3 4 4 4 4 3 3 2 1 2 4 3 1 4 8 7 2 11 19 17 15 13 11 13 13 11 10 9 8 7 6 6 5 5 5 6 8 8 10 10 10 12 13 14 15 16 17 17 18 19 18 18 19 19 20 20 20 20 21 20 20 20 21 20 20 19
14 13 11 9 8 9 11 12 11 9 7 7 5 5 6 7 6 3 4 5 5 4 5 5 2 1 1 3 3 6 2 1 2 5 3 1 16 23 17 16 15 13 15 14 11 9 7 6 7 7 6 5 4 3 5 7 7 7 7 7 8 9 10 11 12 13 14 16 17 17 17 18 19 20 21 22 22 22 22 21 21 22 22 21 21
14 13 12 10 9 11 13 13 11 9 6 5 5 7 8 7 5 4 4 5 5 4 4 4 1 4 3 4 2 5 5 3 4 5 6 2 16 19 15 16 17 17 17 14 11 9 8 6 6 5 5 5 4 3 4 5 4 3 3 4 6 7 8 8 9 9 11 13 14 15 15 16 17 18 20 21 21 22 22 22 22 22 22 22 22
14 13 12 11 11 12 13 12 11 9 7 9 10 9 8 7 6 5 5 4 4 3 3 3 3 3 4 3 0 1 3 4 5 6 5 8 17 14 12 16 17 16 15 14 12 10 9 7 7 6 4 4 4 3 5 5 4 2 1 3 4 6 7 7 7 8 9 10 12 13 14 15 15 16 17 18 19 19 20 21 21 22 23 23 22
15 14 13 12 11 11 11 11 11 10 11 13 13 10 8 8 8 7 6 4 0 2 4 4 4 3 3 1 1 1 1 3 4 3 4 14 18 13 13 15 15 12 11 13 12 9 8 8 9 9 6 4 4 4 5 3 3 2 1 2 3 5 6 6 6 6 6 7 9 11 12 12 13 14 15 16 16 17 18 19 19 20 21 22 22
15 14 13 13 12 10 10 12 14 14 13 13 14 11 9 10 10 9 8 4 2 1 4 7 5 2 2 3 1 1 1 3 3 3 5 10 17 17 15 14 12 10 12 14 12 9 8 8 11 11 8 6 5 4 3 1 2 1 2 3 2 3 5 7 7 8 8 9 10 11 12 12 12 12 13 14 14 15 17 18 18 19 19 19 21
15 14 14 14 13 12 13 14 16 16 13 12 15 13 11 12 10 10 8 6 5 4 5 9 6 2 2 6 4 2 2 2 2 1 5 7 14 16 12 11 10 11 15 17 14 11 8 8 10 9 8 8 6 4 3 1 2 2 2 2 2 1 2 4 6 8 9 10 11 12 13 12 13 12 12 13 13 13 15 15 17 17 18 18 19
15 14 15 15 14 15 16 16 16 16 14 13 15 14 12 13 11 10 9 8 8 4 6 8 7 3 4 6 5 3 2 0 1 1 2 3 5 11 13 11 9 11 15 17 16 12 9 9 8 7 8 7 5 5 4 2 3 3 1 1 2 2 2 2 3 4 6 7 8 9 10 11 11 11 12 12 12 13 14 14 15 15 15 16 17
16 16 16 16 16 17 19 18 16 17 16 15 16 14 11 13 14 12 10 9 8 6 6 6 5 4 7 6 5 5 4 2 1 2 3 0 3 4 10 10 9 11 14 16 16 12 9 8 8 8 9 8 5 5 6 6 4 4 3 3 2 2 3 3 4 5 5 6 6 7 8 9 10 10 10 11 12 13 14 15 15 15 15 14 15
18 18 18 18 18 20 21 19 17 18 16 15 15 14 13 16 15 13 11 10 8 7 7 5 5 5 7 6 6 6 4 3 3 2 3 2 2 1 4 6 7 9 14 17 13 10 7 7 8 8 9 9 6 5 7 8 7 6 6 5 4 4 3 3 4 5 6 7 8 8 9 9 9 10 10 10 11 12 13 14 15 16 16 15 15
21 20 19 21 21 21 22 21 20 20 17 13 14 14 16 17 14 12 11 10 8 8 7 5 4 5 5 5 7 7 4 3 5 5 3 2 1 1 5 7 3 4 13 16 11 8 7 5 7 7 8 9 8 7 8 9 9 9 8 7 6 6 5 5 6 6 7 8 9 10 10 10 10 10 11 11 11 12 12 13 13 14 15 16 16
24 22 22 23 22 21 23 23 22 21 17 14 14 16 17 15 13 11 10 11 10 8 8 6 5 6 5 5 7 7 4 4 6 7 6 4 2 1 3 6 3 4 6 9 9 9 6 4 5 6 7 10 9 9 10 10 11 11 10 9 8 7 7 8 8 9 10 11 11 11 11 11 11 11 11 12 12 13 13 13 13 13 14 14 16
24 24 25 25 23 22 24 24 23 21 19 15 14 18 19 14 12 12 11 13 12 9 9 8 6 8 8 6 5 5 5 6 6 5 6 7 5 3 4 5 3 3 4 2 5 7 5 3 4 5 7 11 11 10 11 12 13 12 12 11 10 10 10 10 10 11 13 14 13 12 12 12 12 12 12 12 12 13 13 14 14 14 14 13 14
25 27 27 26 25 24 24 25 24 22 19 15 13 17 19 15 14 15 14 14 13 10 10 10 9 9 9 7 5 3 4 7 7 5 6 7 5 4 3 3 2 1 3 2 3 5 4 4 6 6 9 13 13 12 12 13 14 13 12 12 12 12 12 12 11 12 13 14 12 11 12 12 13 14 14 14 13 13 14 14 14 14 14 13 13
29 30 29 28 27 26 25 24 23 22 20 17 15 16 15 15 16 18 17 16 14 13 12 12 11 10 8 8 7 2 1 3 3 4 6 6 5 4 3 2 2 1 2 1 1 3 4 6 8 7 9 13 14 13 13 13 14 14 13 13 13 13 13 13 13 14 14 13 12 12 13 13 14 15 15 16 16 15 15 15 15 14 14 13 12
30 32 30 29 29 26 26 25 23 22 21 19 18 16 14 15 18 18 18 16 15 14 14 13 13 11 10 9 7 4 3 4 5 6 5 6 6 6 5 3 2 2 2 2 3 4 5 6 8 8 7 12 15 15 14 14 14 14 15 15 15 14 14 14 15 17 17 16 15 15 15 16 16 16 16 17 18 18 18 17 16 15 15 14 13
30 32 31 30 30 27 26 26 25 23 23 21 19 18 16 17 19 19 19 18 16 15 14 15 15 12 11 11 9 7 5 3 4 4 3 4 5 4 5 5 3 0 2 3 3 4 4 5 6 7 5 8 12 13 13 12 13 13 15 16 15 15 16 16 16 17 18 19 19 18 18 19 19 19 19 19 19 20 20 20 20 19 17 17 16
31 32 31 29 29 29 27 27 26 24 24 23 21 20 19 19 20 19 20 19 18 18 16 16 17 14 12 13 12 9 7 5 5 4 4 4 4 3 4 5 5 4 2 1 3 3 5 7 7 5 4 4 8 10 10 11 12 12 13 15 15 15 16 17 17 18 19 20 21 20 20 21 21 21 22 22 23 23 22 22 23 23 22 21 21
33 32 32 30 29 30 30 28 27 26 25 24 23 23 22 21 21 20 20 19 19 20 20 18 18 15 13 13 13 12 9 7 6 5 5 5 5 4 3 4 6 6 6 4 3 5 9 10 8 4 4 5 6 8 10 12 14 14 14 15 16 17 18 19 19 20 20 20 20 21 22 23 23 24 24 25 25 24 23 22 23 24 25 25 25
34 33 32 31 30 31 32 30 29 29 27 26 25 26 25 24 23 23 22 20 19 21 21 21 21 19 15 13 12 13 12 10 9 7 6 7 7 7 5 6 7 8 10 8 3 5 9 9 9 8 8 8 10 11 13 14 16 16 17 17 18 19 20 22 23 23 22 21 21 22 23 24 24 24 24 24 23 23 22 22 22 22 23 24 25
34 34 33 32 31 32 33 32 31 31 30 29 28 29 28 26 25 25 25 24 23 22 21 22 22 21 19 16 14 14 13 12 12 11 10 9 10 9 8 8 9 10 12 12 7 7 11 11 12 12 11 12 14 14 15 16 15 16 18 19 20 20 21 22 23 23 23 22 22 23 23 24 23 23 23 24 24 24 23 23 24 24 24 25 25
34 34 34 34 33 32 33 33 33 33 33 32 31 31 30 28 26 26 26 27 26 24 22 23 24 22 21 21 19 17 15 15 16 15 13 12 11 11 9 9 11 12 13 14 11 10 12 13 13 13 13 13 15 15 15 15 15 15 16 18 19 20 20 21 21 22 22 23 24 24 24 24 24 24 24 23 24 25 25 26 26 26 27 28 28
35 35 35 35 35 33 33 34 34 35 34 34 34 33 32 30 29 28 28 29 29 28 25 25 25 23 21 22 21 19 18 17 17 16 15 15 14 12 12 11 13 15 15 15 14 12 12 13 13 14 15 14 15 15 14 15 16 17 18 19 19 20 20 21 22 22 22 23 24 25 25 25 24 25 25 24 25 26 26 27 27 28 28 28 28
35 36 36 36 36 35 34 34 35 36 37 36 36 35 34 32 31 31 30 30 30 30 29 27 26 24 23 24 23 21 19 18 17 16 16 15 14 13 14 13 13 13 14 13 13 13 13 14 14 14 15 15 16 16 15 16 17 19 19 19 19 20 21 22 22 22 21 21 22 23 24 25 25 25 26 26 27 27 28 28 28 28 27 27 26
36 37 37 36 37 37 36 36 35 36 37 38 37 36 35 35 34 33 32 31 31 31 31 30 28 27 25 25 24 22 21 19 18 17 16 15 15 14 15 15 13 11 11 11 12 13 13 13 14 16 16 17 18 18 18 18 19 19 19 19 19 20 21 21 22 21 20 21 22 23 23 24 25 25 26 27 27 28 29 29 28 28 28 28 28
38 37 37 36 37 38 39 39 38 37 37 38 37 36 36 36 35 35 34 33 32 32 32 32 31 30 29 27 24 22 21 19 18 18 17 15 15 15 15 16 15 12 11 11 12 12 12 13 15 18 18 18 20 21 19 19 20 20 19 19 20 21 22 22 21 21 20 21 22 22 23 24 24 25 26 26 26 27 28 28 28 28 29 29 30
38 38 37 37 37 38 39 39 39 39 38 38 38 37 37 36 36 35 35 34 33 33 33 33 33 32 31 29 26 23 21 20 19 18 16 15 15 15 16 16 16 14 11 10 11 12 13 14 16 19 20 20 21 21 19 18 19 20 20 21 22 21 21 21 21 20 20 20 20 21 22 24 26 26 27 26 26 27 27 28 28 29 30 31 31
38 37 38 38 38 38 38 38 38 38 37 37 37 37 36 36 36 36 35 35 36 35 32 31 32 32 30 28 26 23 21 20 19 17 14 14 14 15 16 16 16 14 11 9 10 12 13 14 16 18 20 21 20 20 19 17 17 18 19 20 21 20 20 20 20 19 19 19 20 21 23 24 26 26 26 27 27 27 28 28 29 30 30 31 31
38 37 36 36 36 36 36 36 35 35 35 35 36 36 35 34 35 36 36 36 35 33 30 29 29 28 27 26 24 22 20 19 18 16 14 14 14 14 14 15 15 13 11 10 10 10 10 11 14 16 18 20 20 20 18 17 16 16 16 15 16 18 19 18 18 18 19 21 23 24 24 24 25 26 26 26 26 25 25 26 26 27 28 29 30
37 35 33 32 33 33 33 33 32 33 33 34 35 35 34 34 35 36 37 35 32 30 29 29 27 25 25 24 21 19 18 17 16 15 14 14 14 14 13 12 12 11 11 10 9 8 9 10 13 16 16 18 20 19 17 16 15 15 15 15 16 17 18 20 22 23 24 24 25 24 23 22 23 24 23 22 22 22 23 24 26 28 30 31 32
36 33 31 30 31 32 31 31 31 32 33 35 36 36 36 36 36 37 35 33 32 31 29 26 25 24 23 21 18 17 17 16 15 15 14 14 16 16 14 13 12 12 11 11 11 11 11 13 15 16 15 17 20 19 17 17 16 16 17 16 16 17 19 20 22 26 26 23 21 22 23 24 25 26 25 25 27 27 27 28 28 29 29 29 29
33 32 31 30 30 31 31 31 32 33 34 36 36 36 37 37 37 36 34 33 33 31 27 24 23 22 20 19 18 18 18 17 17 16 14 14 15 16 16 16 16 15 15 16 17 17 16 15 17 17 16 18 21 20 19 19 19 18 17 15 15 18 18 15 16 21 25 24 23 25 29 30 30 30 30 29 28 27 25 25 25 25 25 26 27
32 32 32 31 30 30 31 32 33 34 35 36 36 37 37 38 38 36 33 32 31 28 27 25 24 22 21 20 20 19 18 18 18 17 15 15 15 14 15 16 16 17 17 18 19 19 18 18 18 19 20 20 20 21 22 20 19 17 16 16 16 17 17 15 14 19 25 28 27 28 30 30 29 28 29 27 25 24 24 23 23 23 24 25 26
31 32 32 30 28 28 30 31 32 34 35 35 37 37 37 38 39 36 31 29 28 28 28 27 25 23 22 21 21 21 20 19 18 17 16 15 14 14 14 14 14 15 15 16 17 18 20 20 21 23 24 22 20 22 23 20 17 17 16 17 18 18 18 18 19 23 28 29 27 27 28 28 27 26 27 26 25 24 23 23 22 22 23 24 25
29 30 30 28 26 26 28 29 31 33 35 36 37 36 35 37 39 36 31 28 27 27 27 27 25 23 23 24 24 22 21 19 18 16 15 14 13 14 14 14 14 14 16 17 18 19 21 21 22 24 24 22 22 24 24 22 20 18 17 17 18 20 21 22 24 27 27 26 26 25 24 25 25 23 25 27 26 25 25 24 23 22 21 22 23
28 28 28 26 24 24 26 28 30 32 33 34 34 33 33 35 37 35 31 28 27 26 27 28 26 25 26 27 25 22 20 18 16 15 15 14 14 15 15 15 16 16 17 18 18 19 20 20 20 20 20 20 22 22 22 22 21 18 16 17 19 21 23 23 25 27 26 26 27 23 21 22 23 22 24 26 25 24 24 24 23 21 22 23 26
25 25 26 25 25 25 25 26 26 26 26 27 28 29 30 32 34 34 31 29 29 28 27 26 25 25 26 26 23 19 17 16 15 15 15 14 15 15 15 16 16 17 18 18 17 17 17 17 18 19 20 22 22 21 19 17 16 15 17 20 20 21 21 20 21 25 26 26 26 23 23 23 21 20 22 22 21 23 27 26 25 25 27 30 31
24 23 23 23 24 24 23 22 19 18 18 20 23 25 27 30 34 33 31 30 29 28 26 25 24 24 24 23 20 16 16 16 16 15 14 14 15 16 16 16 16 18 19 17 13 12 11 12 12 14 15 16 16 14 13 14 15 18 21 21 20 21 20 17 16 20 24 25 26 24 22 20 18 20 22 23 23 26 28 27 27 28 30 31 30
22 22 21 20 20 20 21 21 19 18 17 18 20 22 26 30 34 33 31 30 29 27 25 23 22 22 22 21 18 16 17 18 17 16 15 15 16 16 16 15 15 16 16 14 10 9 10 11 11 11 11 10 10 11 14 17 19 20 20 20 22 23 21 17 16 19 21 22 22 19 17 19 22 24 25 26 26 26 26 25 28 31 31 30 30
20 19 19 18 18 18 19 20 20 19 19 19 19 21 26 31 33 32 31 29 27 25 23 22 20 20 20 19 18 16 16 17 18 18 16 16 17 17 16 14 13 13 13 11 10 11 13 14 15 15 15 15 16 17 17 17 16 17 19 23 25 25 24 21 19 16 12 11 14 16 18 22 24 24 24 21 18 20 24 27 29 31 32 31 31
Wind_Direction
209 210 203 198 205 213 214 211 219 204 181 158 120 116 110 124 103 95 89 83 24 31 73 72 21 23 143 86 61 56 19 152 211 221 247 251 204 166 136 125 138 174 193 194 193 194 198 203 201 197 192 189 188 186 190 193 193 194 197 203 203 201 204 204 205 207 206 206 208 209 214 222 225 220 217 218 216 218 220 222 224 224 226 232 240
212 207 197 192 189 195 196 191 209 195 167 156 153 172 176 171 154 143 104 37 307 71 66 27 17 35 73 63 74 49 7 53 231 223 230 233 202 175 152 130 123 143 181 193 195 195 198 205 206 203 196 190 188 188 194 198 196 196 200 204 205 204 205 206 207 209 209 210 211 211 214 218 225 226 224 225 220 219 222 226 229 230 230 233 240
192 183 180 178 173 179 185 187 201 179 165 167 179 195 188 190 208 243 358 57 129 89 17 7 15 38 59 66 61 42 349 349 300 271 246 218 190 179 165 139 129 124 149 177 191 197 198 203 208 208 202 194 191 194 202 202 196 196 201 206 207 207 207 208 208 209 210 213 214 213 214 215 221 225 227 229 224 220 223 228 231 234 236 238 244
181 172 171 176 180 187 183 178 178 174 182 196 210 214 197 230 282 296 43 116 122 51 355 27 102 0 31 70 41 43 345 332 342 334 243 202 181 181 172 147 139 120 126 154 179 195 199 202 207 208 204 200 197 202 208 207 201 198 202 209 211 212 214 214 211 210 211 214 218 219 218 217 219 222 225 228 226 224 225 229 232 236 240 242 246
187 181 176 184 196 199 193 186 184 188 204 215 219 214 220 242 200 267 103 164 166 357 339 36 153 333 343 157 45 33 359 351 0 32 174 183 174 173 167 151 142 123 118 134 165 189 202 205 207 208 206 205 203 208 213 212 208 203 204 211 214 215 219 221 218 215 214 215 218 222 224 223 223 224 226 228 229 229 229 231 235 239 242 245 247
204 202 193 201 210 210 211 207 203 208 219 223 222 220 226 219 193 212 179 180 195 319 312 249 146 36 22 132 91 61 25 9 12 79 125 148 155 149 143 141 139 130 120 119 149 176 199 209 213 210 208 209 210 214 217 216 213 208 209 213 216 219 220 222 221 220 220 221 222 223 225 227 227 228 229 230 232 233 233 235 238 241 244 247 249
212 215 208 210 217 218 220 219 219 227 233 232 228 223 221 221 215 191 181 188 196 228 313 292 160 98 67 49 47 252 333 20 42 83 102 125 135 128 124 126 128 128 114 111 134 158 183 198 212 214 211 214 217 222 221 217 215 214 217 218 219 224 226 224 223 224 225 226 229 228 226 227 229 231 232 233 235 236 237 238 240 242 244 245 248
216 218 213 212 214 219 226 229 232 237 242 240 231 221 216 224 233 209 194 191 190 224 342 340 128 118 115 17 28 232 271 28 68 77 76 110 122 116 110 107 113 113 102 113 128 146 167 178 202 209 212 219 220 224 224 218 218 220 224 226 226 229 232 230 228 229 229 230 233 234 231 230 231 234 236 236 237 239 240 241 242 242 243 244 245
217 217 213 215 213 219 233 238 240 239 240 236 229 224 224 230 231 205 183 166 174 260 331 350 68 140 213 35 111 210 286 276 168 134 116 122 134 133 114 103 108 98 87 100 114 136 155 163 190 196 201 216 222 225 224 219 223 226 228 232 232 233 236 236 234 234 236 235 236 237 235 234 234 237 240 241 241 242 243 244 244 244 245 245 245
218 218 214 220 217 220 237 242 238 235 235 235 232 229 233 237 213 185 172 166 194 247 275 313 358 217 232 16 140 246 293 239 208 200 175 144 167 153 119 108 110 94 88 92 91 104 119 138 176 187 191 207 218 222 223 220 227 230 230 234 237 239 242 242 239 239 241 241 238 238 238 239 238 240 243 245 246 245 246 247 248 247 246 247 248
219 221 218 225 220 217 231 237 232 234 239 238 234 232 236 230 196 172 165 182 219 239 255 245 258 274 259 45 292 281 298 246 210 185 175 141 157 151 124 114 111 96 98 96 88 90 90 93 119 166 180 194 202 211 218 215 223 229 230 234 238 245 249 250 247 244 247 248 244 241 240 241 242 244 246 248 250 250 248 249 250 250 248 249 249
221 224 225 229 224 219 226 228 226 232 240 237 234 236 223 194 170 159 175 212 228 242 257 238 248 268 247 356 269 275 313 198 179 169 173 120 130 135 126 121 113 102 107 104 100 94 86 83 85 110 141 163 183 203 216 214 220 227 229 231 236 247 252 252 252 251 252 253 252 249 248 247 247 249 251 251 253 254 254 253 253 253 252 252 251
222 227 230 230 222 215 218 222 223 230 238 235 230 209 184 167 156 168 200 209 217 245 260 246 265 8 327 328 268 244 265 92 179 173 191 134 131 133 130 125 115 116 120 114 110 99 81 87 88 94 111 124 144 176 202 206 212 220 226 226 230 245 252 252 253 254 254 254 255 256 256 255 254 254 255 255 255 255 256 256 256 255 255 255 253
224 231 231 227 219 212 214 218 222 228 222 199 184 167 160 159 165 173 181 197 211 223 224 206 139 51 5 330 286 226 237 260 249 247 284 213 139 136 133 126 116 120 127 123 118 101 83 97 109 102 111 113 106 123 152 158 164 197 233 237 235 242 251 254 252 251 250 251 253 254 255 256 255 255 255 257 256 255 256 257 258 256 255 256 255
227 229 223 221 222 218 217 220 221 215 184 162 156 152 153 166 179 180 187 209 224 213 196 184 161 79 41 2 292 199 246 261 268 289 284 173 152 140 133 129 124 125 130 128 124 108 90 100 120 118 119 123 111 119 138 138 126 118 262 259 251 243 242 248 250 251 249 249 250 249 251 253 253 253 254 256 258 257 257 257 258 257 254 253 254
224 221 213 216 221 217 212 208 200 183 164 155 155 157 166 177 185 192 193 194 235 225 204 180 159 130 73 60 208 94 53 288 299 348 108 153 157 149 142 139 131 135 143 136 126 114 98 100 118 118 116 134 136 137 149 143 113 95 22 322 287 256 245 245 250 254 254 253 252 252 254 256 257 257 257 259 259 259 258 257 259 260 257 253 251
220 217 213 210 206 200 191 182 171 163 160 161 167 175 173 171 179 186 180 166 141 131 172 176 158 109 135 149 75 75 209 306 340 24 60 123 148 149 145 145 136 131 139 141 135 128 117 109 119 126 130 145 153 158 179 164 75 42 353 350 324 266 253 253 255 259 264 266 266 268 268 268 268 267 265 264 262 261 260 258 259 261 262 258 254
211 208 203 193 185 181 177 172 165 164 171 174 180 189 181 172 177 178 171 172 177 124 116 168 171 81 130 142 108 104 207 327 26 27 14 84 141 155 154 147 140 134 135 140 141 138 132 125 127 136 144 153 167 195 231 252 354 337 345 4 353 330 279 263 263 267 273 276 276 278 278 276 274 273 272 270 268 266 264 263 262 262 263 262 259
198 189 186 179 177 182 181 176 171 173 181 182 183 190 187 180 178 172 170 174 182 150 104 143 157 143 149 137 125 134 150 79 81 105 1 33 118 153 165 165 152 147 145 145 149 147 136 135 145 156 155 156 178 213 227 241 313 316 301 327 330 339 330 312 300 290 287 288 286 287 286 285 283 279 276 272 269 267 267 267 267 267 267 265 264
191 181 180 179 181 188 187 182 179 179 184 185 185 189 188 179 174 172 177 181 186 173 133 124 111 140 173 158 154 183 177 166 179 134 143 10 5 132 161 173 167 162 160 158 160 158 140 133 153 171 172 170 182 209 218 227 264 284 282 299 307 310 309 306 311 308 305 303 299 299 297 296 296 291 287 280 272 268 268 268 269 270 270 268 267
185 181 183 188 186 188 190 189 188 183 183 187 187 190 187 176 172 178 187 193 197 191 170 147 106 118 163 172 156 164 165 154 190 195 141 125 319 358 83 120 157 168 169 167 162 157 144 133 144 161 178 182 189 216 227 231 246 266 277 286 299 308 308 304 308 304 304 305 301 300 300 299 300 300 298 294 287 281 276 272 272 272 272 270 268
186 185 185 191 189 189 192 193 192 188 185 189 187 185 183 182 186 192 190 187 188 194 185 163 145 127 142 175 163 156 161 158 169 171 148 126 201 237 63 82 113 149 162 170 167 158 155 143 145 158 180 186 196 219 228 234 247 260 266 274 288 296 296 302 311 308 305 306 298 293 293 294 296 298 299 299 297 294 290 285 281 278 275 273 270
187 188 185 189 191 193 193 191 193 193 191 196 197 190 188 192 199 195 184 177 175 186 184 164 164 160 157 182 174 168 180 180 172 167 162 158 165 187 96 85 70 76 133 165 170 163 156 151 162 176 193 195 201 220 230 237 249 256 260 270 279 278 276 285 297 303 304 304 297 288 283 285 288 290 293 296 297 298 297 296 293 288 283 279 276
185 186 185 189 192 193 193 190 193 195 194 200 205 199 196 198 197 190 182 179 178 186 188 177 177 178 183 206 200 196 217 210 199 191 175 168 172 187 144 108 97 51 31 65 158 165 162 177 208 218 216 212 211 219 230 239 247 253 260 270 277 274 269 271 281 293 302 304 297 288 283 282 282 283 286 288 292 294 295 296 296 294 291 287 284
182 185 187 192 194 193 193 192 193 195 197 200 198 192 196 199 194 188 185 184 183 187 188 183 186 189 191 206 213 223 241 226 216 202 177 173 178 185 146 113 132 119 359 15 155 182 216 266 274 254 225 220 221 224 231 239 245 251 265 274 276 274 268 269 275 284 296 300 291 285 287 289 287 285 283 284 286 288 290 291 293 293 293 292 292
186 190 193 194 195 195 194 193 192 193 196 200 198 195 200 203 196 188 187 190 190 192 195 190 191 198 200 210 222 223 135 170 162 142 155 169 175 169 127 72 72 70 3 343 203 229 270 299 301 283 239 224 229 237 238 240 243 249 264 271 267 265 265 271 280 286 292 291 280 278 285 289 291 289 285 284 283 284 286 286 287 287 288 288 290
193 197 197 195 196 196 195 197 196 195 196 199 201 202 202 197 193 190 191 193 194 197 203 200 196 201 206 214 222 205 157 127 112 109 119 135 146 151 136 109 51 2 339 315 301 291 292 303 311 306 264 229 228 236 240 243 249 257 263 263 261 259 258 268 280 285 288 286 279 277 278 282 286 287 286 285 283 283 283 282 281 280 280 281 283
198 198 198 196 198 197 195 198 200 198 198 199 199 201 198 191 188 191 195 194 194 197 202 203 202 202 205 210 212 211 209 186 160 153 147 148 147 148 145 142 140 145 320 311 299 290 289 300 315 321 297 248 236 238 244 251 258 262 259 261 267 265 260 267 274 276 280 282 281 279 277 278 280 281 282 282 282 282 280 278 276 274 274 274 276
198 197 198 198 201 201 197 198 200 199 199 199 200 201 200 196 191 192 195 195 195 198 200 202 204 206 209 211 214 217 216 202 194 195 209 214 201 180 163 159 166 170 177 261 262 252 270 290 306 318 319 287 255 248 256 268 274 273 268 270 277 277 273 274 274 274 276 278 279 278 277 277 277 276 278 280 282 282 279 276 272 271 270 270 273
200 199 199 200 203 203 200 199 199 200 201 202 203 204 205 204 200 196 194 195 199 201 202 202 204 208 211 211 217 222 216 209 202 192 193 210 216 209 192 187 195 196 193 206 244 253 264 284 293 292 316 316 287 270 273 283 287 281 275 277 282 286 287 284 282 280 279 277 277 278 279 279 278 277 278 280 282 281 278 276 272 270 269 269 271
202 201 201 203 204 203 202 201 200 202 204 205 206 206 207 207 207 204 199 198 201 203 204 205 206 208 209 207 211 214 210 202 193 192 198 204 208 209 206 209 218 222 215 206 212 246 254 273 278 275 289 295 290 287 285 289 290 282 275 277 282 286 287 287 288 288 287 284 280 280 281 281 281 281 280 280 279 277 276 276 276 275 273 271 272
203 203 203 204 204 203 203 203 202 203 205 206 206 207 207 208 210 210 206 202 202 203 205 208 209 210 211 210 208 203 200 198 197 200 200 199 202 204 212 226 229 231 225 214 212 242 251 264 275 277 280 282 283 286 286 288 291 286 279 275 277 280 281 283 287 289 289 290 288 286 285 283 282 283 283 282 280 277 276 275 275 275 275 274 273
203 204 204 203 204 204 204 204 204 205 205 206 205 206 207 208 210 212 210 207 207 207 208 210 211 212 213 214 214 211 208 207 206 204 202 203 208 209 212 226 229 226 222 217 220 243 257 265 274 280 284 285 285 287 289 288 288 287 282 277 275 276 275 276 278 280 283 287 289 289 288 286 284 283 283 283 280 278 276 275 274 273 274 276 275
204 205 205 205 205 205 205 206 206 206 206 205 205 205 206 207 208 210 210 210 210 210 210 210 210 211 215 215 215 216 214 212 210 209 208 207 207 207 210 222 231 229 225 225 228 239 256 266 273 281 286 285 283 285 288 286 285 286 285 281 279 276 274 275 276 278 280 282 283 283 283 284 284 284 284 282 281 280 280 278 277 276 277 278 278
205 206 207 207 206 206 207 207 207 206 206 205 204 205 206 206 206 207 209 211 212 211 212 212 208 209 216 217 215 214 211 211 214 214 215 213 212 213 216 224 230 225 221 226 231 238 254 268 276 281 285 285 283 286 289 287 286 287 287 285 282 278 276 277 277 279 282 283 282 281 279 279 279 281 281 282 282 283 283 283 282 281 279 278 278
206 208 209 209 209 208 208 208 207 206 205 204 205 206 206 206 206 206 207 210 213 214 215 215 211 210 214 213 211 208 208 211 216 218 221 222 223 223 224 226 222 213 215 227 239 251 262 272 280 284 286 287 286 289 294 294 290 288 287 287 286 284 282 280 278 279 283 285 284 281 279 278 279 280 281 283 283 283 284 284 283 282 281 279 279
208 209 210 210 210 210 210 210 210 208 207 206 205 206 207 207 207 207 207 209 213 216 217 218 214 213 215 215 214 212 213 216 218 220 223 224 225 229 231 232 230 225 230 240 251 260 262 268 280 285 285 284 284 289 293 293 290 287 286 287 289 289 287 283 280 280 283 285 283 280 279 279 281 282 282 283 283 282 283 283 282 282 281 281 281
210 210 211 211 211 212 212 212 212 211 210 208 207 207 207 206 207 209 209 209 213 216 218 219 218 217 219 220 221 220 218 219 219 218 221 225 229 231 232 237 239 232 228 238 254 261 260 267 277 281 281 283 286 288 289 287 284 283 287 292 295 294 289 286 284 284 285 286 284 282 282 284 286 286 284 283 282 281 281 281 281 282 282 283 281
210 211 212 213 213 214 214 214 214 213 211 209 208 207 206 206 206 208 210 211 214 216 217 218 219 219 220 221 221 221 220 220 220 218 221 228 234 236 239 243 240 229 226 243 258 262 266 272 276 277 282 288 288 284 285 286 280 279 286 291 294 299 300 294 290 290 290 288 288 287 287 287 288 287 285 283 282 282 281 280 280 281 282 282 280
212 213 213 213 214 215 216 215 215 214 212 210 209 207 205 205 205 208 212 213 215 217 219 220 218 216 218 220 221 222 221 220 223 225 228 235 239 242 243 241 235 233 240 248 252 259 268 272 276 280 286 289 285 281 283 284 280 283 294 295 294 302 307 301 296 297 299 299 298 297 296 294 291 288 288 287 287 286 284 282 281 280 280 279 279
214 214 214 214 214 215 216 216 216 215 213 211 210 208 206 204 206 211 213 213 215 219 221 221 220 218 219 220 220 222 222 222 226 231 238 246 249 246 240 234 235 243 245 239 238 251 264 272 279 284 286 284 282 281 283 284 285 291 301 304 301 302 306 305 300 298 301 305 305 303 301 298 295 293 292 290 287 285 283 281 280 279 279 280 281
214 213 213 214 215 214 213 214 214 214 214 213 213 212 209 207 209 212 212 211 213 217 219 217 215 216 215 213 214 219 224 225 225 230 241 250 249 247 244 244 248 248 245 243 247 257 267 274 277 280 278 276 277 280 282 285 289 294 297 300 301 303 307 307 303 301 303 305 303 301 298 295 293 292 291 289 287 285 284 282 281 281 283 285 285
210 209 210 212 215 214 212 212 212 213 215 215 215 214 212 211 212 212 211 210 212 214 215 210 204 202 203 205 211 218 223 223 223 229 241 247 247 248 250 252 254 253 254 258 260 265 271 273 274 273 268 269 276 281 284 286 288 289 289 291 297 303 304 302 299 300 303 303 301 297 294 294 294 293 294 294 293 293 294 292 292 292 291 290 289
205 205 207 210 212 212 211 210 211 213 215 216 216 215 214 214 213 211 210 210 210 211 210 203 195 193 197 203 211 219 223 223 225 233 245 250 252 252 251 252 254 256 260 262 263 268 273 272 270 270 267 268 275 283 286 287 286 285 284 289 296 296 290 285 282 287 296 300 298 293 292 297 300 296 294 297 301 303 304 303 301 299 297 297 297
202 202 204 207 209 209 208 208 211 214 216 217 217 216 215 215 214 211 208 206 207 208 205 198 191 193 200 207 214 221 225 226 229 237 245 249 251 250 250 251 255 259 262 265 269 274 276 274 270 272 274 273 274 282 286 284 281 283 285 288 293 289 284 282 281 286 295 299 295 289 288 294 297 292 289 298 306 306 304 302 301 299 300 302 301
197 198 200 202 204 206 207 209 213 216 217 217 216 216 216 216 214 209 204 203 205 205 200 194 192 199 209 214 217 220 224 228 230 234 240 246 248 249 250 250 255 262 262 264 271 277 279 277 272 272 278 279 277 281 285 282 280 283 284 286 291 290 287 288 289 292 297 300 297 290 284 287 293 290 289 299 306 303 300 299 298 299 301 301 300
190 191 193 194 197 201 205 210 212 214 215 215 214 214 215 215 212 207 203 203 204 200 195 195 198 205 212 216 217 219 222 226 230 235 241 247 249 251 252 253 256 260 261 264 273 280 282 281 276 276 283 286 284 285 286 284 281 281 285 292 295 293 291 291 293 292 294 300 300 288 276 286 297 295 295 303 308 304 302 302 302 304 304 302 299
187 189 192 196 200 204 205 206 207 208 209 210 210 211 212 212 209 205 202 200 197 192 190 194 199 205 210 214 216 217 221 228 235 239 240 244 248 249 253 259 264 267 270 273 278 283 284 282 281 283 284 284 284 284 284 282 279 283 295 298 296 295 293 289 288 288 289 297 301 290 280 289 302 306 307 314 317 310 307 307 307 306 304 301 299
186 191 196 201 207 211 210 207 206 205 205 208 209 208 208 209 206 200 196 192 187 184 185 188 193 199 206 212 215 218 227 234 238 239 240 242 243 245 252 264 272 277 281 283 283 284 283 283 286 289 287 285 283 281 281 282 287 296 299 296 295 296 292 285 283 284 286 294 301 297 290 296 315 323 320 320 319 313 309 308 308 307 306 304 302
186 193 197 201 205 210 210 208 210 214 214 213 211 207 206 205 199 192 189 185 180 179 182 185 192 200 206 212 218 226 233 237 240 247 249 243 241 246 255 264 271 278 284 285 278 269 267 270 278 285 291 293 290 288 291 292 295 299 295 291 294 291 282 275 277 282 288 294 299 302 307 315 324 326 324 321 315 310 308 310 311 310 309 308 307
182 185 190 194 196 200 203 203 206 211 212 210 208 204 201 197 192 188 185 180 174 176 182 186 193 202 208 214 223 232 237 240 245 252 253 246 244 251 257 259 266 274 276 272 265 265 268 271 277 284 290 295 298 300 301 298 298 300 296 294 294 286 276 274 280 286 294 297 301 311 318 318 318 320 322 320 312 308 310 310 309 308 308 307 305
Height
843 843 844 844 845 846 847 848 849 849 850 851 851 852 853 853 853 853 854 854 853 852 851 851 851 850 850 850 850 850 850 850 850 851 851 852 852 853 853 854 854 855 855 856 857 858 858 859 860 861 863 864 865 866 867 867 868 868 869 870 870 871 871 872 872 872 873 873 874 875 876 876 877 878 878 879 879 880 880 881 881 882 882 882 882
842 843 843 844 845 846 846 847 848 849 849 850 851 851 852 852 852 853 853 853 853 852 851 851 851 851 850 850 850 850 850 850 850 851 851 851 852 853 853 854 854 855 855 855 856 857 858 858 859 861 862 863 864 865 865 863 864 866 867 868 868 869 869 870 870 871 871 872 872 873 874 875 875 876 877 878 878 879 879 880 880 881 881 881 882
841 842 843 844 844 845 846 846 847 848 848 849 850 850 850 851 851 852 852 852 852 851 851 851 851 851 850 850 850 850 850 850 850 850 850 850 851 852 853 853 854 855 855 855 856 856 857 858 859 860 862 863 864 864 862 861 862 864 865 866 866 867 867 868 868 869 870 871 871 872 872 873 874 875 875 876 877 877 878 879 879 880 880 880 881
841 842 842 843 844 844 845 845 846 846 847 848 848 849 849 850 850 851 852 852 852 851 851 851 851 850 850 850 850 850 850 849 850 849 849 849 851 852 852 853 854 855 856 856 856 856 857 857 858 859 861 861 862 861 861 861 861 862 863 864 865 866 866 867 867 868 869 870 870 871 871 872 873 873 874 875 875 876 877 877 878 878 879 879 880
840 841 841 842 843 844 844 844 845 845 845 846 847 848 848 849 849 850 851 851 851 851 851 851 850 850 849 850 850 850 850 849 849 848 848 849 851 852 852 853 854 855 856 856 856 857 857 857 858 859 859 860 860 860 860 860 861 862 863 864 865 865 865 866 867 868 868 869 869 870 871 871 872 872 873 874 874 875 875 876 876 877 877 878 878
839 840 840 841 841 842 843 843 843 844 844 845 845 846 846 847 848 849 850 850 850 850 850 850 850 850 849 849 850 850 850 850 849 848 848 850 851 852 852 853 854 854 855 855 856 857 857 857 857 858 858 859 859 860 859 860 861 861 862 863 863 863 864 865 867 868 868 868 868 868 869 870 871 872 872 873 873 874 874 874 875 875 876 876 877
837 838 839 840 840 840 841 842 842 843 843 843 844 845 845 846 847 848 848 849 849 849 850 850 850 850 849 849 850 850 850 850 850 849 849 849 851 851 852 853 853 854 854 855 856 856 856 857 857 858 858 858 859 859 859 860 860 861 861 861 862 862 863 865 866 866 866 867 867 868 869 869 870 870 871 871 872 872 872 873 873 873 874 874 875
836 837 838 838 839 839 840 841 841 841 842 842 843 844 844 845 846 846 847 848 848 848 849 849 849 849 849 849 850 850 850 850 850 850 850 850 850 851 851 852 853 854 854 854 855 855 856 856 857 857 857 858 858 858 858 859 860 859 860 860 861 861 862 863 865 865 865 866 866 867 868 868 869 869 870 870 871 871 871 872 872 872 872 872 873
834 835 836 837 837 838 839 839 840 840 841 841 842 843 844 844 845 846 846 847 847 848 848 848 848 848 848 849 849 849 849 849 850 850 850 851 851 851 851 852 853 853 854 854 854 855 855 856 856 856 856 857 857 857 858 858 859 858 859 859 860 860 861 862 863 864 864 865 866 866 866 867 867 868 868 869 869 870 870 871 871 871 871 871 871
833 834 834 835 836 837 838 839 839 839 840 840 841 842 843 844 844 845 845 846 846 847 847 848 848 848 848 848 848 849 849 848 849 849 850 850 851 852 852 852 853 854 854 854 855 855 855 855 855 856 856 856 857 857 857 858 858 858 858 859 859 859 859 860 861 862 863 863 864 865 865 865 866 866 867 867 868 868 869 869 869 869 869 870 870
832 833 833 834 835 836 837 838 838 838 839 840 841 842 842 843 844 844 845 845 846 846 847 847 848 848 847 848 848 848 847 847 848 848 849 849 850 851 852 853 853 853 854 854 855 856 856 856 855 855 856 856 856 857 857 857 857 857 857 858 859 858 858 859 860 860 860 861 862 863 864 864 865 865 865 866 866 867 867 867 868 868 868 868 868
831 832 833 833 834 835 836 837 837 837 838 839 840 841 841 842 843 844 844 845 846 846 846 847 847 847 847 847 847 847 847 846 847 848 848 849 850 851 851 852 852 853 853 854 855 856 856 856 856 855 856 856 856 856 856 856 856 856 856 857 858 857 857 858 858 859 859 859 860 861 862 862 863 863 863 864 864 865 865 865 865 866 866 866 866
830 831 832 833 833 834 835 835 836 836 837 838 839 840 841 842 842 843 844 844 845 845 846 847 846 846 846 847 846 846 847 847 847 848 848 850 850 850 851 851 851 852 853 853 854 855 856 856 856 856 856 856 856 856 856 856 856 856 856 856 857 856 856 856 857 857 857 857 858 859 859 860 860 861 861 861 862 863 863 863 863 864 864 864 864
829 830 831 832 832 833 834 834 835 835 836 837 839 839 840 841 842 843 843 844 844 845 845 846 846 846 846 847 847 847 847 846 847 847 848 850 850 849 850 851 851 852 852 853 854 855 855 855 856 856 856 856 856 856 856 856 856 856 856 856 856 856 856 856 856 856 856 856 856 857 857 857 858 858 859 859 860 860 861 861 861 862 862 862 862
828 828 829 830 831 832 833 833 834 835 836 837 838 839 840 840 841 842 842 843 844 844 845 845 845 846 846 848 848 848 848 847 847 847 847 849 849 848 849 850 851 851 851 852 853 854 854 855 855 855 856 856 856 856 856 856 856 855 855 855 855 856 855 855 855 855 855 855 855 855 855 855 856 856 857 857 858 858 859 859 859 859 859 859 860
826 827 828 829 830 831 832 833 833 834 835 836 837 838 838 839 840 841 841 842 843 843 844 844 844 845 847 849 849 850 852 849 846 847 847 848 848 847 849 850 850 851 851 851 852 853 853 854 854 855 855 856 856 856 855 855 855 855 855 855 855 855 855 855 855 855 854 854 854 854 854 854 854 855 855 855 855 856 856 856 856 856 857 857 857
825 826 827 828 829 830 831 832 832 833 834 835 836 836 837 837 838 839 839 840 841 841 842 843 843 844 845 847 849 851 852 848 846 847 847 848 848 848 848 849 850 850 850 851 851 852 853 853 853 854 854 855 855 855 855 855 855 855 855 854 854 854 854 854 854 854 854 854 853 853 854 854 854 854 854 854 854 854 854 854 854 854 854 855 855
824 825 826 827 828 829 830 831 831 832 833 834 834 835 835 836 836 837 838 838 839 840 841 842 842 843 843 845 847 849 849 846 847 849 847 847 848 849 848 849 849 850 850 850 851 852 852 852 853 853 853 853 854 854 854 855 855 855 855 854 854 854 854 854 854 854 853 853 853 853 853 853 853 853 853 853 853 853 853 852 852 852 852 853 853
822 824 825 826 827 828 829 830 830 831 832 832 833 833 834 835 836 836 836 837 838 839 840 841 841 842 842 843 844 845 846 846 848 849 850 849 848 849 849 849 849 849 850 850 851 851 852 852 852 853 853 853 853 853 853 854 854 854 854 854 854 853 853 853 853 853 853 853 852 852 852 852 852 852 852 852 852 852 851 851 851 851 851 851 851
821 822 824 825 826 827 828 828 829 830 830 831 832 832 833 834 834 835 836 836 837 838 839 839 840 841 842 843 844 844 846 846 846 847 850 851 849 849 849 850 850 850 850 850 850 851 851 852 852 852 853 853 853 853 853 853 853 853 853 853 853 853 852 852 852 852 852 852 852 851 851 851 851 851 850 850 850 850 850 850 850 849 849 850 849
820 821 822 823 824 825 826 827 828 828 829 830 830 831 832 833 833 834 835 836 837 837 838 839 840 841 841 842 843 844 845 845 846 846 847 850 850 849 849 850 850 850 850 850 851 850 850 851 851 852 852 853 852 852 852 852 852 852 852 852 852 852 852 852 852 851 851 851 851 851 850 850 850 850 850 849 849 849 849 849 848 848 848 848 848
818 819 821 822 823 824 825 825 826 827 828 828 829 830 831 832 833 834 835 836 837 837 838 839 840 840 841 842 842 843 844 844 845 846 846 848 849 849 849 849 849 850 850 850 850 849 850 850 850 851 851 851 852 851 851 851 851 851 851 851 851 851 851 851 851 851 851 850 850 850 849 849 849 849 849 848 848 848 848 847 847 847 846 846 846
816 818 819 820 821 822 823 823 824 825 826 827 829 830 831 832 833 833 834 835 837 837 838 839 840 840 840 841 842 842 843 843 844 844 845 846 847 848 848 848 848 849 849 850 849 849 849 849 850 850 850 850 850 850 850 850 850 850 850 850 850 850 850 850 850 850 850 849 849 849 849 848 848 848 848 847 847 847 846 846 846 845 845 845 844
814 816 817 817 818 819 820 822 823 824 825 827 828 829 830 831 832 833 834 835 836 837 838 838 839 839 840 840 841 842 842 842 843 843 843 844 845 846 846 847 847 847 848 849 849 849 849 849 849 849 848 848 848 848 848 848 848 848 848 848 848 848 848 849 849 849 848 848 848 847 847 847 847 847 846 846 846 846 845 845 844 844 844 843 843
811 813 813 814 815 816 818 819 821 823 824 826 827 828 829 830 831 832 833 834 835 836 836 837 838 838 839 839 840 841 841 841 842 842 842 843 843 844 845 846 846 846 847 847 848 848 848 848 848 847 847 847 847 847 847 847 847 847 847 847 847 847 847 847 847 847 847 847 846 846 846 845 845 845 845 845 845 844 844 844 843 843 842 842 841
808 809 810 811 812 814 816 818 820 822 823 825 826 827 828 829 830 831 832 833 834 835 835 836 836 837 838 838 839 841 841 841 841 841 842 842 843 843 844 845 845 845 846 846 847 847 847 847 846 846 846 846 846 846 846 846 846 847 847 846 846 846 846 846 845 845 845 845 845 845 844 844 844 843 843 843 843 843 842 842 842 841 841 840 840
804 805 807 809 810 813 815 817 819 820 822 823 825 826 827 828 829 830 831 832 832 833 834 835 835 836 837 838 839 840 840 840 840 841 841 841 842 842 843 845 846 846 845 845 845 845 845 845 845 845 844 844 845 845 846 846 846 846 846 845 845 844 844 844 844 844 843 843 843 843 843 843 842 842 842 841 841 841 840 840 840 840 840 839 839
802 803 805 807 808 811 813 815 817 818 820 821 823 824 825 826 827 828 829 830 830 831 833 834 834 835 836 837 837 838 838 839 839 839 840 840 841 841 841 843 845 847 847 846 845 844 844 843 843 843 843 843 844 844 845 845 845 845 844 843 843 842 842 842 842 842 842 841 841 841 841 841 840 840 840 840 839 839 839 838 838 838 838 837 837
799 801 803 805 807 809 811 813 814 816 818 819 821 822 823 825 826 826 827 828 829 830 831 832 833 833 834 834 835 836 836 836 837 838 838 839 839 839 840 840 842 844 846 846 845 843 842 842 842 842 842 842 842 843 843 843 843 843 842 842 841 840 840 840 840 840 840 839 839 839 839 838 838 838 838 837 837 837 836 836 836 836 836 835 835
797 799 802 803 805 807 808 810 812 814 816 817 818 820 821 822 823 825 825 826 827 828 829 830 831 832 832 833 833 833 834 835 835 836 836 837 837 837 838 838 839 841 842 843 843 841 840 841 841 841 841 841 842 842 842 842 841 841 840 840 839 839 839 838 837 837 837 837 837 837 836 836 836 836 836 835 835 834 834 834 834 833 833 833 833
794 797 799 801 802 804 806 808 809 811 813 814 816 817 818 819 821 822 823 824 825 826 827 828 829 830 830 831 831 831 832 833 833 834 834 834 835 835 836 837 838 839 839 840 840 839 839 839 840 840 840 840 840 840 840 840 840 840 839 838 838 837 837 836 835 835 834 834 834 834 834 833 833 833 833 833 832 832 831 831 831 831 831 830 830
792 794 796 798 799 801 803 805 806 808 810 811 812 814 815 817 818 819 821 822 823 824 825 826 827 827 828 829 829 829 830 830 830 831 831 831 832 833 834 835 835 836 837 838 838 837 837 838 838 838 839 839 839 839 838 838 838 838 837 837 836 836 835 834 833 833 832 832 831 831 831 831 831 830 830 830 829 829 829 829 829 828 828 827 827
788 791 793 795 796 798 800 801 803 805 806 807 809 811 812 814 815 817 819 820 821 821 822 823 824 825 826 826 827 827 827 827 827 828 828 829 830 830 832 832 833 834 835 836 836 835 836 836 836 836 837 837 837 837 837 836 836 836 836 836 835 834 833 832 831 831 830 830 829 828 828 828 828 827 827 827 826 826 826 826 826 825 825 824 824
785 787 789 791 793 795 797 798 800 801 802 804 805 807 809 811 812 814 816 817 818 819 820 820 821 823 824 824 824 825 825 825 825 826 826 827 828 828 829 830 831 832 833 834 834 834 834 834 834 834 835 835 835 835 836 835 835 835 834 834 833 832 831 830 829 828 828 827 826 826 826 825 825 824 824 824 823 823 823 823 822 822 822 821 821
782 784 786 788 790 792 794 795 796 798 799 800 802 804 805 808 809 811 813 815 816 816 817 818 819 820 821 821 821 822 823 823 824 825 825 826 827 827 828 829 829 830 831 832 832 832 832 831 832 832 832 833 833 833 833 833 833 833 832 832 831 830 829 828 827 826 825 824 824 824 823 823 822 821 821 820 820 820 820 819 819 818 818 818 818
778 780 783 784 787 789 790 792 793 794 796 797 799 801 802 805 806 808 811 812 813 814 815 815 816 817 818 818 819 820 821 822 823 824 825 826 827 827 828 828 828 828 829 830 831 831 830 829 829 830 830 830 830 830 831 831 831 831 830 829 828 828 827 826 825 823 823 822 821 821 821 820 819 819 818 817 817 817 816 816 816 815 815 815 814
775 777 779 781 783 785 786 788 789 791 793 794 796 797 799 802 804 806 808 809 811 812 812 813 814 814 815 816 817 819 820 820 821 823 824 825 826 826 827 827 827 827 827 828 829 829 829 829 828 828 828 828 828 828 828 828 828 827 827 826 826 825 824 823 822 821 820 820 819 819 818 817 817 816 815 814 814 814 813 813 812 812 811 811 811
771 773 775 778 779 781 782 784 786 788 790 792 793 794 797 799 802 804 805 807 809 809 809 810 811 812 813 814 816 817 818 819 820 822 823 824 824 824 825 826 827 826 825 826 827 828 828 828 827 827 827 827 826 825 826 826 826 824 824 823 822 821 821 820 819 818 818 817 816 816 815 815 814 813 812 811 811 811 810 809 809 808 808 808 807
767 769 771 773 775 777 780 782 784 786 788 790 791 793 794 796 799 802 803 804 805 805 807 808 810 811 812 814 815 816 817 818 820 821 822 823 823 823 824 824 825 824 823 824 825 825 826 826 826 825 825 824 824 823 823 824 823 822 821 820 819 818 818 817 816 816 815 814 814 813 812 811 810 809 808 808 808 807 806 806 805 805 805 804 803
763 765 768 771 773 776 778 780 782 784 786 788 789 791 793 795 797 799 800 801 803 805 806 808 809 810 812 813 814 816 817 818 819 820 821 821 822 822 822 823 823 823 822 821 822 823 824 824 824 823 823 822 821 821 821 821 820 819 819 818 816 815 815 814 814 813 812 811 810 809 809 808 806 806 805 805 804 804 803 802 802 801 801 800 799
761 764 767 770 772 774 776 778 780 782 784 786 787 789 791 793 795 796 797 800 803 805 806 806 808 809 811 812 814 816 817 817 818 819 820 820 821 821 821 821 821 821 820 819 819 820 821 821 821 821 821 820 819 818 818 817 817 817 816 816 814 813 813 812 811 810 809 808 807 806 806 805 804 803 802 802 801 800 800 799 798 797 796 796 795
759 762 765 767 769 770 773 775 777 779 781 782 784 786 788 790 792 793 795 798 801 802 803 804 807 808 810 812 814 816 817 817 817 817 818 819 819 819 819 819 819 819 819 818 817 817 818 818 818 819 818 817 816 816 815 815 815 814 813 813 812 811 811 809 808 807 806 805 804 803 803 803 801 800 799 799 798 797 796 794 794 793 792 792 791
757 759 762 764 765 766 768 771 773 774 776 778 780 782 785 787 789 790 792 794 797 799 801 803 805 807 809 812 813 815 815 814 815 815 816 817 817 817 817 817 817 817 817 816 816 815 816 816 816 816 815 814 813 813 813 813 812 812 811 811 810 809 809 808 806 804 804 803 802 800 799 799 798 796 795 795 794 792 791 790 789 789 789 788 788
753 755 758 759 760 763 765 767 769 770 771 773 776 778 781 783 785 787 789 791 794 797 798 800 802 804 807 810 811 812 812 812 812 813 814 815 815 815 815 815 815 814 814 814 813 813 814 814 813 813 812 811 811 811 812 811 810 810 809 809 808 807 807 806 805 803 802 802 801 797 795 795 795 793 792 791 790 789 787 786 786 786 785 785 784
749 751 754 756 757 760 762 763 765 767 768 770 771 773 776 779 781 783 786 790 792 794 795 797 799 802 804 807 808 809 810 810 811 812 812 813 813 813 813 813 813 812 812 812 811 811 811 811 810 809 809 809 809 809 809 809 808 808 807 806 806 805 805 804 803 801 800 800 798 794 791 791 792 790 788 788 787 785 784 784 783 783 782 782 781
746 748 751 753 755 757 758 760 761 762 762 764 766 769 772 775 778 780 784 787 789 791 793 795 798 800 802 804 805 805 807 808 810 811 811 811 811 811 811 811 810 810 809 809 808 808 808 808 807 806 806 807 806 806 806 807 806 806 805 804 804 803 802 802 800 799 798 797 796 792 788 788 789 787 784 783 783 782 782 781 781 781 780 779 778
743 745 748 750 752 753 754 755 755 756 758 760 763 767 770 773 776 779 782 784 786 788 790 793 795 797 800 802 803 804 805 807 809 809 809 809 809 809 809 808 808 807 806 806 806 805 805 805 804 804 804 804 804 803 804 804 804 803 803 803 802 801 800 798 797 796 795 794 794 791 785 783 785 783 781 781 781 780 779 779 778 778 777 776 775
740 742 745 747 748 750 751 753 754 756 758 761 763 765 767 770 774 776 779 782 783 785 787 790 793 796 798 801 802 803 804 806 807 808 807 807 807 806 806 805 805 804 803 804 804 803 803 803 802 802 801 801 801 801 802 802 802 802 801 800 799 798 797 796 794 793 792 791 791 789 784 781 782 782 779 779 779 778 777 776 776 775 774 773 771
737 739 741 744 746 749 751 754 756 758 760 762 763 763 765 767 771 773 776 779 780 783 786 788 791 794 797 799 800 802 803 804 805 806 805 805 805 804 804 803 802 801 801 801 801 801 801 801 801 800 800 800 800 800 800 800 800 800 799 797 796 796 795 794 792 791 790 789 788 787 784 781 781 780 778 777 777 775 774 773 772 771 770 769 768
734 737 740 742 745 748 750 753 755 757 760 761 762 761 762 765 768 770 773 776 779 782 785 788 790 793 795 797 799 800 801 802 803 804 803 803 803 802 802 801 800 799 798 799 799 800 799 799 799 799 798 798 798 798 798 798 798 797 796 795 794 794 793 792 790 789 789 788 787 786 784 781 780 779 776 773 771 771 771 770 769 767 766 764 763
733 736 739 741 744 746 749 750 752 754 757 759 760 760 761 763 766 769 772 775 778 781 784 787 789 791 793 795 797 798 799 800 801 801 802 801 801 801 800 799 798 797 797 798 798 798 797 797 796 796 796 796 796 796 796 795 795 795 794 793 793 792 791 791 790 789 788 787 787 786 783 781 779 778 777 773 768 766 767 767 765 763 762 761 759